Hourly Data Report for August 08, 2022

SANDSPIT
BRITISH COLUMBIA
Current Station Operator: NAVCAN

53°15'15.000" N
131°48'50.000" W
6.40 m
1057052
71111
YZP

Download Data

Hourly Data (August 2022)
Hourly Data Report for August 8, 2022
TIME
LST
Temp Definition
°C
Dew Point Definition
°C
Rel Hum Definition
%
Precip. Amount Definition
mm

Wind Dir Definition
10's deg

Wind Spd Definition
km/h
Visibility Definition
km
Stn Press Definition
kPa
Hmdx Definition


Wind Chill Definition


Weather Definition


00:00 14.9 9.5 70 0.0 31 18 16.1 102.35     LegendNANA
01:00 14.9 9.7 71 0.0 33 22 16.1 102.33     LegendNANA
02:00 14.6 9.5 71 0.0 32 21 16.1 102.31     LegendNANA
03:00 14.3 9.6 73 0.0 32 22 16.1 102.31     LegendNANA
04:00 13.6 8.9 73 0.0 31 21 16.1 102.29     LegendNANA
05:00 13.7 8.3 70 0.0 30 28 16.1 102.25     LegendNANA
06:00 13.8 8.1 68 0.0 30 22 16.1 102.30     LegendNANA
07:00 14.5 7.8 64 0.0 30 24 16.1 102.32     LegendNANA
08:00 15.6 8.2 61 0.0 32 30 16.1 102.31     LegendNANA
09:00 16.6 8.8 60 0.0 33 28 16.1 102.28     LegendNANA
10:00 17.2 9.9 62 0.0 35 30 16.1 102.25     LegendNANA
11:00 17.3 9.6 60 0.0 34 34 16.1 102.24     LegendNANA
12:00 18.4 10.8 61 0.0 35 24 16.1 102.21     LegendNANA
13:00 18.9 10.8 59 0.0 36 22 16.1 102.19     LegendNANA
14:00 18.8 12.7 67 0.0 2 15 16.1 102.16     LegendNANA
15:00 19.0 12.2 64 0.0 3 24 16.1 102.12     LegendNANA
16:00 18.9 12.7 67 0.0 3 18 16.1 102.08     LegendNANA
17:00 18.9 13.8 72 0.0 2 18 16.1 102.03     LegendNANA
18:00 19.8 10.3 54 0.0 34 30 16.1 101.99     LegendNANA
19:00 18.7 11.0 61 0.0 35 30 16.1 101.97     LegendNANA
20:00 17.2 10.6 65 0.0 34 32 16.1 101.97     LegendNANA
21:00 16.3 8.2 58 0.0 33 34 16.1 102.00     LegendNANA
22:00 15.3 8.0 62 0.0 32 28 16.1 101.97     LegendNANA
23:00 14.6 8.4 66 0.0 32 28 16.1 101.95     LegendNANA

Notes on Data Quality.

Legend

  • E = Estimated
  • M = Missing
  • NA = Not Available*
  • [empty] = Indicates an unobserved value
Date modified: